Weather History for CYKZ - March, 2014

Change the Weather History Date:

Thursday, March 13, 2014

  Actual Average (CYTZ) Record (CYTZ)
Temperature  
Mean Temperature 10 °F -  
Max Temperature 19 °F 34 °F - (-1)
Min Temperature 0 °F 24 °F - (-1)
Degree Days  
Heating Degree Days 56    
Moisture  
Dew Point -5 °F    
Average Humidity 52    
Maximum Humidity 66    
Minimum Humidity 30    
Precipitation  
Precipitation 0.00 in - - ()
Sea Level Pressure  
Sea Level Pressure 29.98 in    
Wind  
Wind Speed 13 mph ()    
Max Wind Speed 23 mph    
Max Gust Speed 30 mph    
Visibility 15.0 miles    
Events      
Averages and records for this station are not official NWS values.
T = Trace of Precipitation, MM = Missing Value Source: Averaged Metar Reports

Daily Weather History Graph

Daily Weather History Graph

Search for Another Location

Airport or City:

Trip Planner

Search our weather history database for the weather conditions in past years. The results will help you decide how hot, cold, wet, or windy it might be!

Date:

Astronomy

Mar. 13, 2014 Rise Set
Actual Time 7:33 AM EDT 7:21 PM EDT
Civil Twilight 7:04 AM EDT 7:49 PM EDT
Nautical Twilight 6:31 AM EDT 8:23 PM EDT
Astronomical Twilight 5:57 AM EDT 8:57 PM EDT
Moon 4:41 PM EDT (3/13) 5:43 AM EDT (3/13)
Length of Visible Light 12h 45m
Length of Day
11h 47m
Waxing Gibbous, 91% of the Moon is Illuminated
Mar 13
Waxing Gibbous
Mar 16
Full
Mar 23
Last Quarter
Mar 30
New
Apr 7
First Quarter

Hourly Weather History & Observations

Time (EDT) Temp. Windchill Dew Point Humidity Pressure Visibility Wind Dir Wind Speed Gust Speed Precip Events Conditions
12:00 AM 6.8 °F -10.0 °F -4.0 °F 61% 29.84 in 15.0 mi NNW 13.8 mph 24.2 mph N/A   Partly Cloudy
1:00 AM 5.0 °F -14.2 °F -5.8 °F 61% 29.84 in 15.0 mi NNW 17.3 mph 23.0 mph N/A   Partly Cloudy
2:00 AM 4 °F - -7 °F 46% 29.84 in 15 mi NNW 18.4 mph - -   Partly Cloudy
2:00 AM 5.0 °F -14.7 °F -5.8 °F 61% 29.84 in 15.0 mi NNW 18.4 mph 27.6 mph N/A   Clear
3:00 AM 3.2 °F -19.0 °F -5.8 °F 66% 29.84 in 15.0 mi NNW 23.0 mph 29.9 mph N/A   Clear
4:00 AM 1.4 °F -20.5 °F -7.6 °F 66% 29.85 in 15.0 mi NNW 20.7 mph 28.8 mph N/A   Clear
5:00 AM 1.4 °F -18.8 °F -9.4 °F 61% 29.88 in 15.0 mi NNW 17.3 mph - N/A   Clear
6:00 AM 1.4 °F -18.2 °F -11.2 °F 56% 29.91 in 15.0 mi NNW 16.1 mph - N/A   Clear
7:00 AM -0.4 °F -18.4 °F -11.2 °F 60% 29.94 in 15.0 mi NNW 12.7 mph 19.6 mph N/A   Partly Cloudy
8:00 AM -1 °F - -14 °F 39% 29.97 in 15 mi NNW 12.7 mph - -   Scattered Clouds
8:00 AM -0.4 °F -16.7 °F -13.0 °F 55% 29.97 in 15.0 mi NNW 10.4 mph 17.3 mph N/A   Partly Cloudy
9:00 AM 1.4 °F -16.9 °F -13.0 °F 51% 30.01 in 15.0 mi NNW 13.8 mph - N/A   Clear
10:00 AM 3.2 °F -11.3 °F -11.2 °F 51% 30.02 in 15.0 mi NNW 9.2 mph - N/A   Clear
11:00 AM 5.0 °F -12.3 °F -9.4 °F 52% 30.04 in 15.0 mi NW 13.8 mph - N/A   Partly Cloudy
12:00 PM 8.6 °F -7.7 °F -7.6 °F 48% 30.05 in 15.0 mi NNW 13.8 mph 20.7 mph N/A   Partly Cloudy
1:00 PM 12.2 °F -2.5 °F -5.8 °F 45% 30.05 in 15.0 mi NNW 12.7 mph 21.9 mph N/A   Partly Cloudy
2:00 PM 13 °F - -4 °F 30% 30.05 in 15 mi NW 13.8 mph - -   Clear
2:00 PM 14.0 °F -2.0 °F -4.0 °F 45% 30.05 in 15.0 mi NW 16.1 mph - N/A   Partly Cloudy
3:00 PM 15.8 °F 0.3 °F -4.0 °F 41% 30.04 in 15.0 mi NW 16.1 mph - N/A   Partly Cloudy
4:00 PM 19.4 °F 8.6 °F -0.4 °F 42% 30.04 in 15.0 mi WNW 9.2 mph - N/A   Mostly Cloudy
5:00 PM 19.4 °F 11.5 °F -2.2 °F 39% 30.04 in 15.0 mi WSW 5.8 mph - N/A   Mostly Cloudy
6:00 PM 17.6 °F 5.7 °F -0.4 °F 45% 30.04 in 15.0 mi WSW 10.4 mph - N/A   Mostly Cloudy
7:00 PM 17.6 °F 6.4 °F -0.4 °F 45% 30.05 in 15.0 mi WSW 9.2 mph - N/A   Overcast
8:00 PM 16 °F - 2 °F 40% 30.06 in 15 mi WSW 8.1 mph - -   Overcast
8:00 PM 15.8 °F 7.2 °F 3.2 °F 58% 30.06 in 15.0 mi WSW 5.8 mph - N/A   Overcast
9:00 PM 15.8 °F 6.1 °F 3.2 °F 58% 30.07 in 15.0 mi West 6.9 mph - N/A   Overcast
10:00 PM 15.8 °F 5.1 °F 5.0 °F 62% 30.07 in 15.0 mi SW 8.1 mph - N/A   Overcast
11:00 PM 17.6 °F 6.4 °F 6.8 °F 63% 30.06 in 15.0 mi SSW 9.2 mph - N/A   Overcast